Le Mars, IA

3:51 PM CDT on October 15, 2019 (GMT -0500)
Le Mars Municipal

Weather History for KLRJ - August, 2019

Change the Weather History Date:

Saturday, August 10, 2019

  Actual Average Record
Temperature  
Mean Temperature 76 °F -  
Max Temperature 84 °F 84 °F 100 °F (1976)
Min Temperature 68 °F 59 °F 49 °F (1985)
Cooling Degree Days 11    
Growing Degree Days 26 (Base 50)    
Moisture  
Dew Point 70 °F    
Average Humidity 81    
Maximum Humidity 100    
Minimum Humidity 70    
Precipitation  
Precipitation 0.00 in - - ()
Sea Level Pressure  
Sea Level Pressure 29.89 in    
Wind  
Wind Speed 10 mph (SSE)    
Max Wind Speed 17 mph    
Max Gust Speed 28 mph    
Visibility 10 miles    
Events      
Averages and records for this station are not official NWS values.
T = Trace of Precipitation, MM = Missing Value Source: NWS Daily Summary

Daily Weather History Graph

Daily Weather History Graph

Search for Another Location

Airport or City:

Astronomy

Aug. 10, 2019 Rise Set
Actual Time 6:25 AM CDT 8:34 PM CDT
Civil Twilight 5:54 AM CDT 9:04 PM CDT
Nautical Twilight 5:16 AM CDT 9:43 PM CDT
Astronomical Twilight 4:33 AM CDT 10:24 PM CDT
Moon 5:20 PM CDT (8/10) 2:00 AM CDT (8/10)
Length of Visible Light 15h 10m
Length of Day
14h 08m
Waxing Gibbous, 79% of the Moon is Illuminated
Aug 10
Waxing Gibbous
Aug 15
Full
Aug 23
Last Quarter
Aug 30
New
Sep 5
First Quarter

Hourly Weather History & Observations

Time (CDT) Temp. Heat Index Dew Point Humidity Pressure Visibility Wind Dir Wind Speed Gust Speed Precip Events Conditions
12:15 AM 69.8 °F - 64.4 °F 83% 29.89 in 10.0 mi SE 11.5 mph 19.6 mph N/A   Clear
12:35 AM 71.6 °F - 62.6 °F 73% 29.88 in 10.0 mi ESE 16.1 mph 23.0 mph N/A   Mostly Cloudy
12:55 AM 71.6 °F - 62.6 °F 73% 29.87 in 10.0 mi ESE 17.3 mph 27.6 mph N/A   Partly Cloudy
1:15 AM 71.6 °F - 62.6 °F 73% 29.87 in 10.0 mi SE 16.1 mph 21.9 mph N/A   Clear
1:35 AM 71.6 °F - 64.4 °F 78% 29.87 in 10.0 mi SE 13.8 mph - N/A   Partly Cloudy
1:55 AM 69.8 °F - 62.6 °F 78% 29.87 in 10.0 mi ESE 10.4 mph - N/A   Partly Cloudy
2:15 AM 69.8 °F - 62.6 °F 78% 29.86 in 10.0 mi ESE 8.1 mph 15.0 mph N/A   Clear
2:35 AM 69.8 °F - 62.6 °F 78% 29.86 in 10.0 mi ESE 12.7 mph 18.4 mph N/A   Scattered Clouds
2:55 AM 69.8 °F - 62.6 °F 78% 29.87 in 10.0 mi ESE 12.7 mph 18.4 mph N/A   Mostly Cloudy
3:15 AM 71.6 °F - 62.6 °F 73% 29.87 in 10.0 mi ESE 10.4 mph - N/A   Overcast
3:35 AM 71.6 °F - 62.6 °F 73% 29.88 in 10.0 mi East 11.5 mph - N/A   Overcast
3:55 AM 69.8 °F - 62.6 °F 78% 29.90 in 10.0 mi ESE 10.4 mph - N/A   Mostly Cloudy
4:15 AM 71.6 °F - 62.6 °F 73% 29.91 in 10.0 mi ESE 10.4 mph - N/A   Overcast
4:35 AM 71.6 °F - 62.6 °F 73% 29.90 in 10.0 mi ESE 9.2 mph - N/A   Overcast
4:55 AM 69.8 °F - 62.6 °F 78% 29.89 in 10.0 mi ESE 10.4 mph 16.1 mph N/A   Scattered Clouds
5:15 AM 69.8 °F - 64.4 °F 83% 29.89 in 10.0 mi ESE 11.5 mph - N/A   Clear
5:35 AM 69.8 °F - 64.4 °F 83% 29.88 in 10.0 mi ESE 12.7 mph 18.4 mph N/A   Clear
5:55 AM 69.8 °F - 64.4 °F 83% 29.88 in 10.0 mi ESE 10.4 mph - N/A   Clear
6:15 AM 68.0 °F - 64.4 °F 88% 29.88 in 10.0 mi ESE 11.5 mph - N/A   Clear
6:35 AM 68.0 °F - 64.4 °F 88% 29.89 in 10.0 mi ESE 11.5 mph - N/A   Clear
6:55 AM 68.0 °F - 64.4 °F 88% 29.89 in 10.0 mi ESE 12.7 mph - N/A   Mostly Cloudy
7:15 AM 69.8 °F - 66.2 °F 88% 29.89 in 10.0 mi ESE 12.7 mph - N/A   Mostly Cloudy
7:35 AM 69.8 °F - 66.2 °F 88% 29.90 in 10.0 mi ESE 11.5 mph 18.4 mph N/A   Partly Cloudy
7:55 AM 69.8 °F - 66.2 °F 88% 29.90 in 10.0 mi SE 11.5 mph 17.3 mph N/A   Partly Cloudy
8:15 AM 71.6 °F - 68.0 °F 88% 29.90 in 10.0 mi SE 10.4 mph 18.4 mph N/A   Mostly Cloudy
8:35 AM 73.4 °F - 68.0 °F 83% 29.90 in 10.0 mi SE 15.0 mph - N/A   Mostly Cloudy
8:55 AM 73.4 °F - 69.8 °F 88% 29.91 in 10.0 mi SSE 12.7 mph - N/A   Mostly Cloudy
9:15 AM 75.2 °F - 69.8 °F 83% 29.92 in 10.0 mi South 9.2 mph - N/A   Mostly Cloudy
9:35 AM 77.0 °F - 71.6 °F 83% 29.92 in 10.0 mi SSE 11.5 mph - N/A   Mostly Cloudy
9:55 AM 75.2 °F - 71.6 °F 89% 29.92 in 10.0 mi South 9.2 mph - N/A   Overcast
10:15 AM 75.2 °F - 71.6 °F 89% 29.92 in 10.0 mi South 12.7 mph - N/A   Mostly Cloudy
10:35 AM 77.0 °F - 71.6 °F 83% 29.92 in 10.0 mi South 13.8 mph - N/A   Scattered Clouds
10:55 AM 78.8 °F - 73.4 °F 83% 29.92 in 10.0 mi SSW 11.5 mph - N/A   Mostly Cloudy
11:15 AM 80.6 °F 85.4 °F 73.4 °F 79% 29.91 in 10.0 mi South 11.5 mph - N/A   Mostly Cloudy
11:35 AM 80.6 °F 85.4 °F 73.4 °F 79% 29.90 in 10.0 mi South 11.5 mph - N/A   Partly Cloudy
11:55 AM 80.6 °F 84.6 °F 71.6 °F 74% 29.90 in 10.0 mi South 9.2 mph 16.1 mph N/A   Clear
12:15 PM 82.4 °F 88.2 °F 73.4 °F 74% 29.90 in 10.0 mi South 9.2 mph 15.0 mph N/A   Mostly Cloudy
12:35 PM 82.4 °F 88.2 °F 73.4 °F 74% 29.89 in 10.0 mi South 12.7 mph - N/A   Overcast
12:55 PM 82.4 °F 88.2 °F 73.4 °F 74% 29.89 in 10.0 mi South 15.0 mph - N/A   Overcast
1:15 PM 82.4 °F 87.2 °F 71.6 °F 70% 29.88 in 10.0 mi South 13.8 mph - N/A   Overcast
1:35 PM 84.2 °F 90.9 °F 73.4 °F 70% 29.88 in 10.0 mi South 12.7 mph - N/A   Overcast
1:55 PM 82.4 °F 88.2 °F 73.4 °F 74% 29.88 in 10.0 mi SSW 11.5 mph - N/A   Overcast
2:15 PM 82.4 °F 88.2 °F 73.4 °F 74% 29.88 in 10.0 mi South 12.7 mph - N/A   Overcast
2:35 PM 84.2 °F 90.9 °F 73.4 °F 70% 29.88 in 10.0 mi SSW 10.4 mph - N/A   Overcast
2:55 PM 82.4 °F 88.2 °F 73.4 °F 74% 29.88 in 10.0 mi SSW 9.2 mph - N/A   Overcast
3:15 PM 82.4 °F 87.2 °F 71.6 °F 70% 29.89 in 10.0 mi SSW 9.2 mph - N/A   Overcast
3:35 PM 82.4 °F 88.2 °F 73.4 °F 74% 29.89 in 10.0 mi SSW 6.9 mph - N/A   Overcast
3:55 PM 82.4 °F 88.2 °F 73.4 °F 74% 29.89 in 10.0 mi SW 6.9 mph - N/A   Overcast
4:15 PM 82.4 °F 88.2 °F 73.4 °F 74% 29.90 in 10.0 mi SW 6.9 mph - N/A   Overcast
4:35 PM 82.4 °F 88.2 °F 73.4 °F 74% 29.90 in 10.0 mi SW 8.1 mph - N/A   Overcast
4:55 PM 80.6 °F 85.4 °F 73.4 °F 79% 29.90 in 10.0 mi SW 6.9 mph - N/A   Overcast
5:15 PM 82.4 °F 88.2 °F 73.4 °F 74% 29.90 in 10.0 mi SSW 5.8 mph - N/A   Overcast
5:35 PM 82.4 °F 88.2 °F 73.4 °F 74% 29.89 in 10.0 mi SSW 8.1 mph - N/A   Overcast
5:55 PM 84.2 °F 90.9 °F 73.4 °F 70% 29.89 in 10.0 mi SSW 8.1 mph - N/A   Scattered Clouds
6:15 PM 82.4 °F 88.2 °F 73.4 °F 74% 29.89 in 10.0 mi SW 5.8 mph - N/A   Clear
6:35 PM 84.2 °F 90.9 °F 73.4 °F 70% 29.88 in 10.0 mi Variable 5.8 mph - N/A   Clear
6:55 PM 82.4 °F 88.2 °F 73.4 °F 74% 29.89 in 10.0 mi SSW 5.8 mph - N/A   Clear
7:15 PM 82.4 °F 88.2 °F 73.4 °F 74% 29.88 in 10.0 mi SSW 4.6 mph - N/A   Clear
7:35 PM 82.4 °F 88.2 °F 73.4 °F 74% 29.88 in 10.0 mi WSW 4.6 mph - N/A   Clear
7:55 PM 80.6 °F 85.4 °F 73.4 °F 79% 29.88 in 10.0 mi Calm Calm - N/A   Clear
8:15 PM 80.6 °F 86.2 °F 75.2 °F 84% 29.88 in 10.0 mi Calm Calm - N/A   Clear
8:35 PM 78.8 °F - 75.2 °F 89% 29.89 in 10.0 mi Calm Calm - N/A   Clear
8:55 PM 77.0 °F - 73.4 °F 89% 29.90 in 10.0 mi Calm Calm - N/A   Clear
9:15 PM 77.0 °F - 75.2 °F 94% 29.90 in 10.0 mi Calm Calm - N/A   Clear
9:35 PM 75.2 °F - 73.4 °F 94% 29.90 in 10.0 mi Calm Calm - N/A   Clear
9:55 PM 75.2 °F - 75.2 °F 100% 29.90 in 10.0 mi Calm Calm - N/A   Clear
10:15 PM 73.4 °F - 73.4 °F 100% 29.91 in 9.0 mi Calm Calm - N/A   Clear
10:35 PM 73.4 °F - 73.4 °F 100% 29.91 in 7.0 mi Calm Calm - N/A   Clear
10:55 PM 73.4 °F - 73.4 °F 100% 29.91 in 4.0 mi Calm Calm - N/A   Clear
11:15 PM 71.6 °F - 71.6 °F 100% 29.92 in 8.0 mi Calm Calm - N/A   Clear
11:35 PM 71.6 °F - 71.6 °F 100% 29.92 in 7.0 mi Calm Calm - N/A   Clear
11:55 PM 71.6 °F - 69.8 °F 94% 29.93 in 5.0 mi Calm Calm - N/A   Clear